KMOLAKE37 Weather Reports


Display with metric or nautical units.
time (UTC)temp
F
wind
direction
speed
MPH
gust
MPH
rain 1hr
in
rain 24hr
in
rain mn
in
humidity
%
barometer
mb
20260906151551 82 67 2.0 6.0 0.00 0.00 0.00 75 1017.4
20260906150048 82 110 1.0 6.0 0.00 0.00 0.00 76 1017.2
20260906144603 82 55 1.0 5.0 0.00 0.00 0.00 76 1017.0
20260906143042 80 65 1.0 8.0 0.00 0.00 0.00 78 1017.1
20260906141549 80 65 2.0 4.0 0.00 0.00 0.00 79 1016.8
20260906140044 79 0 0.0 4.0 0.00 0.00 0.00 80 1016.8
20260906134542 79 357 0.0 4.0 0.00 0.00 0.00 81 1016.8
20260906133049 77 50 0.0 3.0 0.00 0.00 0.00 82 1016.8
20260906131541 77 13 0.0 4.0 0.00 0.00 0.00 84 1016.8
20260906130051 76 345 0.0 1.0 0.00 0.00 0.00 85 1017.0
20260906124543 74 0 0.0 1.0 0.00 0.00 0.00 88 1016.8
20260906123040 73 7 0.0 1.0 0.00 0.00 0.00 89 1016.8
20260906121545 73 354 0.0 0.0 0.00 0.00 0.00 89 1016.3
20260906120048 73 0 0.0 2.0 0.00 0.00 0.00 89 1016.2
20260906114554 73 0 0.0 0.0 0.00 0.00 0.00 88 1016.1
20260906113041 74 0 0.0 0.0 0.00 0.00 0.00 88 1015.8
20260906111545 74 0 0.0 0.0 0.00 0.00 0.00 88 1015.8
20260906110043 74 0 0.0 0.0 0.00 0.00 0.00 88 1015.8
20260906104548 75 0 0.0 2.0 0.00 0.00 0.00 88 1015.7
20260906103040 75 0 0.0 1.0 0.00 0.00 0.00 87 1015.6
20260906101544 76 0 0.0 2.0 0.00 0.00 0.00 88 1015.5
20260906100043 76 0 0.0 2.0 0.00 0.00 0.00 87 1015.3
20260906094557 76 0 0.0 2.0 0.00 0.00 0.00 87 1015.0
20260906093102 77 0 0.0 2.0 0.00 0.00 0.00 87 1015.2
20260906091545 77 0 0.0 2.0 0.00 0.00 0.00 87 1015.3
20260906090046 78 0 0.0 3.0 0.00 0.00 0.00 87 1015.1
20260906084542 78 348 0.0 2.0 0.00 0.00 0.00 87 1014.9
20260906083049 78 5 0.0 2.0 0.00 0.00 0.00 87 1014.7
20260906081546 79 0 0.0 3.0 0.00 0.00 0.00 87 1014.7
20260906080045 79 0 0.0 4.0 0.00 0.00 0.00 87 1014.6
20260906074542 79 11 0.0 3.0 0.00 0.00 0.00 87 1014.6
20260906073041 80 165 0.0 2.0 0.00 0.00 0.00 87 1014.8
20260906071545 80 0 0.0 1.0 0.00 0.00 0.00 86 1014.9
20260906070045 80 316 0.0 2.0 0.00 0.00 0.00 86 1014.7
20260906064542 80 0 0.0 0.0 0.00 0.00 0.00 85 1014.6
20260906063043 80 0 0.0 0.0 0.00 0.00 0.00 84 1014.9
20260906061546 80 0 0.0 0.0 0.00 0.00 0.00 84 1014.6
20260906060045 80 0 0.0 0.0 0.00 0.00 0.00 84 1014.7
20260906054543 80 0 0.0 0.0 0.00 0.00 0.00 82 1014.6
20260906053041 81 0 0.0 0.0 0.00 0.00 0.00 81 1014.6
20260906051549 81 0 0.0 0.0 0.00 0.00 0.00 80 1014.7
20260906050049 81 0 0.0 0.0 0.00 0.00 0.00 80 1014.6
20260906044544 81 0 0.0 0.0 0.00 0.00 0.00 78 1014.5
20260906043038 82 0 0.0 0.0 0.00 0.00 0.00 77 1014.2
20260906041546 82 0 0.0 0.0 0.00 0.00 0.00 76 1014.3
20260906040054 82 0 0.0 0.0 0.00 0.00 0.00 76 1014.1
20260906034542 82 0 0.0 0.0 0.00 0.00 0.00 75 1014.2
20260906033048 82 0 0.0 0.0 0.00 0.00 0.00 74 1014.0
20260906031545 83 0 0.0 0.0 0.00 0.00 0.00 75 1014.0
20260906030043 83 0 0.0 0.0 0.00 0.00 0.00 75 1013.9
20260906024551 84 0 0.0 0.0 0.00 0.00 0.00 72 1013.8
20260906023041 84 0 0.0 0.0 0.00 0.00 0.00 72 1013.5
20260906021547 84 0 0.0 0.0 0.00 0.00 0.00 71 1013.3
20260906020046 85 0 0.0 0.0 0.00 0.00 0.00 70 1013.1
20260906014611 86 0 0.0 0.0 0.00 0.00 0.00 68 1012.8
20260906013048 86 0 0.0 0.0 0.00 0.00 0.00 67 1012.7
20260906011542 87 0 0.0 0.0 0.00 0.00 0.00 66 1012.6
20260906010051 88 0 0.0 0.0 0.00 0.00 0.00 64 1012.6
20260906004541 89 0 0.0 0.0 0.00 0.00 0.00 63 1012.3
20260906003043 90 0 0.0 0.0 0.00 0.00 0.00 61 1012.2
20260906001542 91 0 0.0 1.0 0.00 0.00 0.00 59 1012.4
20260906000047 92 0 0.0 1.0 0.00 0.00 0.00 58 1012.5
20260905234544 92 0 0.0 0.0 0.00 0.00 0.00 57 1012.3
20260905233046 93 0 0.0 3.0 0.00 0.00 0.00 56 1012.4
20260905231546 94 0 0.0 6.0 0.00 0.00 0.00 54 1012.5
20260905230048 95 227 0.0 3.0 0.00 0.00 0.00 51 1012.7
20260905224542 96 316 0.0 9.0 0.00 0.00 0.00 49 1012.4
20260905223042 98 351 0.0 3.0 0.00 0.00 0.00 49 1012.3
20260905221605 99 0 0.0 5.0 0.00 0.00 0.00 46 1012.3
20260905220046 102 0 1.0 4.0 0.00 0.00 0.00 44 1012.3
20260905214541 102 344 1.0 7.0 0.00 0.00 0.00 43 1012.4
20260905213058 102 8 0.0 4.0 0.00 0.00 0.00 43 1012.4
20260905211546 101 65 0.0 4.0 0.00 0.00 0.00 43 1012.3
20260905210051 101 342 0.0 4.0 0.00 0.00 0.00 43 1012.5
20260905204548 101 88 2.0 7.0 0.00 0.00 0.00 44 1012.8
20260905203046 101 251 1.0 7.0 0.00 0.00 0.00 44 1012.7
20260905201601 101 321 1.0 7.0 0.00 0.00 0.00 44 1012.8
20260905200046 101 212 1.0 6.0 0.00 0.00 0.00 46 1012.8
20260905194546 103 235 1.0 6.0 0.00 0.00 0.00 42 1012.9
20260905193054 103 13 1.0 6.0 0.00 0.00 0.00 40 1013.1
20260905191544 102 226 2.0 5.0 0.00 0.00 0.00 41 1013.4
20260905190044 102 354 1.0 7.0 0.00 0.00 0.00 40 1013.4
20260905184554 103 265 2.0 8.0 0.00 0.00 0.00 40 1013.4
20260905183045 102 223 1.0 3.0 0.00 0.00 0.00 41 1013.5
20260905181557 102 314 0.0 6.0 0.00 0.00 0.00 42 1013.7
20260905180041 102 0 1.0 4.0 0.00 0.00 0.00 43 1013.9
20260905174549 101 0 2.0 5.0 0.00 0.00 0.00 43 1014.1
20260905173048 101 48 1.0 3.0 0.00 0.00 0.00 45 1014.2
20260905171544 101 84 0.0 4.0 0.00 0.00 0.00 48 1014.4
20260905170043 100 41 1.0 4.0 0.00 0.00 0.00 49 1014.8
20260905164543 100 91 2.0 7.0 0.00 0.00 0.00 49 1014.9
20260905163045 99 262 1.0 4.0 0.00 0.00 0.00 49 1015.0
20260905161557 98 0 0.0 4.0 0.00 0.00 0.00 51 1015.1
20260905160045 97 73 0.0 5.0 0.00 0.00 0.00 53 1015.1
20260905154543 96 355 0.0 2.0 0.00 0.00 0.00 55 1014.9
20260905153048 94 262 1.0 2.0 0.00 0.00 0.00 56 1015.1